Flag for Australia Weather past 2 weeks in Alice Springs, Northern Territory, Australia

Now
79 °F

Sunny.


Feels Like: 78 °F
Forecast: 73 / 98 °F
Wind: 7 mph from Northeast

Location: Alice Springs Aerodrome

Current Time: Oct 23, 2014 at 8:20:36 AM

Latest Report: Oct 23, 2014 at 7:30 AM


Visibility: 10 mi

Pressure: 30.07 "Hg

Humidity: 21%

Dew point: 36 °F

Location of Alice SpringsLocation

Historic Weather in Alice Springs — Graph

°F

Alice Springs temperature yesterday

Maximum temperature yesterday: 99 °F (at 2:30 PM)
Minimum temperature yesterday: 64 °F (at 5:00 AM)
Average temperature yesterday: 85 °F

Past Weeks' High & Low Weather Summary

 TemperatureHumidityPressure
High99 °F (Oct 10, 2:30 PM)44% (Oct 12, 5:30 AM)30.30 "Hg (Oct 12, 5:30 AM)
Low43 °F (Oct 16, 4:30 AM)0% (Oct 18, 2:00 PM)29.80 "Hg (Oct 12, 4:00 PM)
Average74 °F14%30.07 "Hg
* Reported Oct 8 6:30 AM — Oct 23 6:30 AM, Alice Springs, Weather by CustomWeather, © 2014

Note: Actual official high and low records may vary slightly from our data, if they occured in-between our weather recording intervals... More about our weather records

Advertising

Alice Springs weather history for previous 24 hours

 ConditionsComfort  
Time TempWeatherWind HumidityBarometerVisibility
6:30 AM
Oct 23
77 °FSunny.7 mph18%30.07 "Hg10 mi
6:00 AM72 °FSunny.8 mph23%30.04 "Hg10 mi
5:30 AM70 °FSunny.8 mph25%30.04 "HgN/A
5:00 AM72 °FClear.6 mph23%30.04 "HgN/A
4:30 AM73 °FClear.3 mph19%30.01 "HgN/A
4:00 AM73 °FClear.7 mph20%30.01 "HgN/A
3:30 AM75 °FClear.5 mph18%30.01 "HgN/A
3:00 AM73 °FClear.8 mph20%30.01 "HgN/A
2:30 AM73 °FClear.7 mph20%30.01 "HgN/A
2:00 AM73 °FClear.6 mph22%30.04 "HgN/A
1:30 AM73 °FClear.6 mph23%30.04 "HgN/A
1:00 AM73 °FClear.7 mph22%30.04 "HgN/A
12:30 AM72 °FClear.7 mph31%30.07 "HgN/A
12:00 AM75 °FClear.6 mph21%30.07 "HgN/A
11:30 PM
Oct 22
75 °FClear.7 mph22%30.07 "HgN/A
10:30 PM81 °FClear.7 mph15%30.07 "HgN/A
10:00 PM79 °FClear.10 mph18%30.07 "HgN/A
9:30 PM81 °FClear.8 mph15%30.07 "HgN/A
9:00 PM81 °FClear.8 mph16%30.07 "HgN/A
8:30 PM84 °FClear.8 mph12%30.04 "HgN/A
8:00 PM84 °FClear.8 mph13%30.04 "HgN/A
7:30 PM88 °FClear.7 mph12%30.01 "HgN/A
7:00 PM88 °FClear.7 mph13%30.01 "HgN/A
6:30 PM93 °FClear.10 mph8%30.01 "HgN/A
6:00 PM95 °FSunny.10 mph9%30.01 "HgN/A
5:30 PM97 °FSunny.14 mph7%29.98 "HgN/A
5:00 PM97 °FSunny.14 mph7%29.98 "Hg10 mi
4:30 PM97 °FSunny.9 mph6%29.98 "Hg10 mi
4:00 PM97 °FPassing clouds.6 mph6%29.98 "HgN/A
3:30 PM99 °FSunny.7 mph5%30.01 "Hg10 mi
3:00 PM95 °FPassing clouds.15 mph9%30.01 "HgN/A
2:30 PM99 °FPassing clouds.7 mph6%30.01 "HgN/A
2:00 PM97 °FSunny.12 mph7%30.04 "Hg10 mi
1:30 PM95 °FSunny.8 mph7%30.04 "Hg10 mi
1:00 PM97 °FSunny.14 mph7%30.07 "Hg10 mi
12:30 PM97 °FPassing clouds.6 mph6%30.07 "HgN/A
12:00 PM95 °FPassing clouds.8 mph7%30.07 "HgN/A
11:30 AM95 °FSunny.14 mph9%30.09 "HgN/A
11:00 AM93 °FSunny.15 mph9%30.09 "HgN/A
10:30 AM93 °FPassing clouds.13 mph9%30.09 "HgN/A
10:00 AM91 °FSunny.14 mph10%30.12 "Hg10 mi
9:30 AM90 °FSunny.15 mph11%30.12 "Hg10 mi
9:00 AM90 °FSunny.13 mph12%30.12 "Hg10 mi
8:30 AM86 °FSunny.15 mph13%30.12 "Hg10 mi
8:00 AM84 °FSunny.10 mph15%30.09 "Hg10 mi
Weather by CustomWeather, © 2014

See weather overviewHow to use our weather pages